CHX55 EDDH-EDDW

Flight info

Callsign CHX55
Flight time 0h 26m
Altitude 1500
Route EDDH/05
Aircraft EC45/L-V/N

Departure

Time 2026-04-20 19:36
Airport Hamburg Helmut Schmidt Airport (EDDH)

Arrival

Time 2026-04-20 20:03
Airport Bremen Airport (EDDW)
Time Latitude Longitude Altitude Speed Heading
2026-04-20 19:29 53.62528 9.99318 43 ft 0 kts 261°
2026-04-20 19:31 53.62529 9.99319 43 ft 2 kts 272°
2026-04-20 19:31 53.62541 9.99346 49 ft 8 kts 354°
2026-04-20 19:31 53.62585 9.99297 47 ft 8 kts 264°
2026-04-20 19:32 53.62562 9.99093 49 ft 24 kts 256°
2026-04-20 19:32 53.62535 9.98838 49 ft 19 kts 256°
2026-04-20 19:32 53.62521 9.98721 48 ft 4 kts 264°
2026-04-20 19:32 53.62521 9.98712 50 ft 1 kts 263°
2026-04-20 19:33 53.62523 9.98712 49 ft 1 kts 263°
2026-04-20 19:33 53.62519 9.98709 47 ft 1 kts 263°
2026-04-20 19:33 53.62519 9.98698 48 ft 0 kts 263°
2026-04-20 19:33 53.62519 9.98696 46 ft 0 kts 263°
2026-04-20 19:34 53.62518 9.98698 47 ft 1 kts 263°
2026-04-20 19:34 53.62513 9.98642 51 ft 9 kts 263°
2026-04-20 19:34 53.62504 9.98527 51 ft 10 kts 274°
2026-04-20 19:34 53.62541 9.98468 46 ft 6 kts 356°
2026-04-20 19:35 53.62543 9.98467 43 ft 0 kts 356°
2026-04-20 19:35 53.62544 9.98464 46 ft 1 kts 356°
2026-04-20 19:35 53.62576 9.98450 80 ft 16 kts 356°
2026-04-20 19:36 53.62903 9.98455 209 ft 69 kts 352°
2026-04-20 19:36 53.63312 9.97872 367 ft 87 kts 295°
2026-04-20 19:36 53.63347 9.96788 658 ft 102 kts 245°
2026-04-20 19:36 53.63018 9.95624 730 ft 119 kts 237°
2026-04-20 19:37 53.62518 9.94432 674 ft 130 kts 228°
2026-04-20 19:37 53.61951 9.93221 636 ft 131 kts 234°
2026-04-20 19:37 53.61414 9.92034 714 ft 125 kts 233°
2026-04-20 19:37 53.60893 9.90903 770 ft 120 kts 231°
2026-04-20 19:38 53.60475 9.89692 807 ft 121 kts 250°
2026-04-20 19:38 53.60276 9.88315 812 ft 122 kts 262°
2026-04-20 19:38 53.60110 9.86903 856 ft 124 kts 262°
2026-04-20 19:38 53.59950 9.85466 946 ft 124 kts 262°
2026-04-20 19:39 53.59814 9.84095 1236 ft 114 kts 265°
2026-04-20 19:39 53.59670 9.82832 1501 ft 107 kts 257°
2026-04-20 19:39 53.59505 9.81583 1676 ft 112 kts 258°
2026-04-20 19:39 53.59348 9.80259 1806 ft 120 kts 262°
2026-04-20 19:40 53.59213 9.78810 1811 ft 129 kts 263°
2026-04-20 19:40 53.59071 9.77267 1794 ft 137 kts 264°
2026-04-20 19:40 53.58893 9.75654 1741 ft 143 kts 258°
2026-04-20 19:40 53.58655 9.74010 1659 ft 147 kts 256°
2026-04-20 19:41 53.58364 9.72346 1567 ft 149 kts 252°
2026-04-20 19:41 53.58014 9.70739 1553 ft 144 kts 249°
2026-04-20 19:41 53.57654 9.69212 1547 ft 141 kts 249°
2026-04-20 19:41 53.57228 9.67727 1592 ft 138 kts 238°
2026-04-20 19:42 53.56713 9.66409 1633 ft 136 kts 234°
2026-04-20 19:42 53.56178 9.65084 1718 ft 137 kts 232°
2026-04-20 19:42 53.55636 9.63759 1813 ft 138 kts 232°
2026-04-20 19:42 53.55091 9.62421 1921 ft 139 kts 232°
2026-04-20 19:43 53.54543 9.61074 2028 ft 140 kts 231°
2026-04-20 19:43 53.53987 9.59690 2117 ft 147 kts 231°
2026-04-20 19:43 53.53383 9.58324 2120 ft 143 kts 231°
2026-04-20 19:43 53.52821 9.56930 2116 ft 145 kts 231°
2026-04-20 19:44 53.52241 9.55571 2106 ft 148 kts 231°
2026-04-20 19:44 53.51657 9.54116 2104 ft 149 kts 232°
2026-04-20 19:44 53.51072 9.52651 2098 ft 152 kts 232°
2026-04-20 19:44 53.50491 9.51193 2097 ft 149 kts 232°
2026-04-20 19:45 53.49916 9.49735 2093 ft 150 kts 232°
2026-04-20 19:45 53.49335 9.48269 2093 ft 150 kts 232°
2026-04-20 19:45 53.48761 9.46822 2093 ft 149 kts 232°
2026-04-20 19:45 53.48183 9.45361 2090 ft 151 kts 232°
2026-04-20 19:46 53.47797 9.44388 2088 ft 152 kts 232°
2026-04-20 19:46 53.47211 9.42910 2085 ft 152 kts 232°
2026-04-20 19:46 53.46623 9.41438 2084 ft 152 kts 232°
2026-04-20 19:46 53.46040 9.39974 2085 ft 149 kts 232°
2026-04-20 19:47 53.45468 9.38532 2085 ft 149 kts 232°
2026-04-20 19:47 53.44896 9.37089 2078 ft 148 kts 232°
2026-04-20 19:47 53.44324 9.35645 2078 ft 149 kts 232°
2026-04-20 19:47 53.43747 9.34199 2078 ft 151 kts 232°
2026-04-20 19:48 53.43156 9.32724 2078 ft 150 kts 232°
2026-04-20 19:48 53.42574 9.31275 2075 ft 150 kts 232°
2026-04-20 19:48 53.42000 9.29830 2079 ft 147 kts 231°
2026-04-20 19:48 53.41440 9.28396 2079 ft 148 kts 232°
2026-04-20 19:49 53.40882 9.26956 2081 ft 146 kts 232°
2026-04-20 19:49 53.40328 9.25528 2080 ft 146 kts 232°
2026-04-20 19:49 53.39775 9.24100 2079 ft 146 kts 232°
2026-04-20 19:49 53.39224 9.22669 2079 ft 147 kts 232°
2026-04-20 19:50 53.38662 9.21228 2081 ft 148 kts 232°
2026-04-20 19:50 53.38103 9.19810 2077 ft 144 kts 232°
2026-04-20 19:50 53.37540 9.18413 2073 ft 146 kts 232°
2026-04-20 19:50 53.36977 9.17017 2075 ft 147 kts 232°
2026-04-20 19:51 53.36399 9.15588 2076 ft 146 kts 232°
2026-04-20 19:51 53.35839 9.14196 2075 ft 146 kts 231°
2026-04-20 19:51 53.35277 9.12783 2072 ft 146 kts 232°
2026-04-20 19:51 53.34717 9.11365 2074 ft 146 kts 232°
2026-04-20 19:52 53.34157 9.09944 2075 ft 146 kts 232°
2026-04-20 19:52 53.33593 9.08522 2076 ft 146 kts 232°
2026-04-20 19:52 53.33027 9.07113 2075 ft 145 kts 232°
2026-04-20 19:52 53.32465 9.05707 2074 ft 146 kts 232°
2026-04-20 19:53 53.31901 9.04298 2072 ft 146 kts 232°
2026-04-20 19:53 53.31337 9.02884 2073 ft 146 kts 232°
2026-04-20 19:53 53.30775 9.01463 2074 ft 146 kts 232°
2026-04-20 19:53 53.30213 9.00049 2077 ft 146 kts 232°
2026-04-20 19:54 53.29604 8.98704 2074 ft 145 kts 224°
2026-04-20 19:54 53.28955 8.97454 2074 ft 144 kts 223°
2026-04-20 19:54 53.28294 8.96191 2074 ft 145 kts 223°
2026-04-20 19:54 53.27634 8.94918 2075 ft 145 kts 223°
2026-04-20 19:55 53.26977 8.93651 2077 ft 144 kts 223°
2026-04-20 19:55 53.26322 8.92395 2076 ft 145 kts 223°
2026-04-20 19:55 53.25663 8.91145 2074 ft 145 kts 223°
2026-04-20 19:55 53.24996 8.89887 2075 ft 145 kts 223°
2026-04-20 19:56 53.24329 8.88627 2080 ft 144 kts 222°
2026-04-20 19:56 53.23671 8.87366 2077 ft 144 kts 223°
2026-04-20 19:56 53.23012 8.86095 2078 ft 145 kts 223°
2026-04-20 19:56 53.22348 8.84822 2075 ft 146 kts 223°
2026-04-20 19:57 53.21677 8.83548 2070 ft 146 kts 223°
2026-04-20 19:57 53.20994 8.82328 2070 ft 142 kts 217°
2026-04-20 19:57 53.20251 8.81184 2072 ft 143 kts 215°
2026-04-20 19:57 53.19534 8.80105 2071 ft 142 kts 214°
2026-04-20 19:58 53.18762 8.79093 2073 ft 140 kts 207°
2026-04-20 19:58 53.17970 8.78162 2074 ft 139 kts 206°
2026-04-20 19:58 53.17172 8.77243 2073 ft 140 kts 206°
2026-04-20 19:58 53.16377 8.76365 2075 ft 137 kts 202°
2026-04-20 19:59 53.15539 8.75624 2073 ft 136 kts 195°
2026-04-20 19:59 53.14676 8.74952 2072 ft 136 kts 195°
2026-04-20 19:59 53.13807 8.74365 2074 ft 133 kts 189°
2026-04-20 19:59 53.12933 8.73854 2071 ft 133 kts 188°
2026-04-20 20:00 53.12062 8.73447 2071 ft 131 kts 181°
2026-04-20 20:00 53.11181 8.73126 2072 ft 128 kts 179°
2026-04-20 20:00 53.10309 8.72912 2030 ft 126 kts 174°
2026-04-20 20:00 53.09425 8.72807 1843 ft 130 kts 169°
2026-04-20 20:01 53.08512 8.72925 1569 ft 133 kts 159°
2026-04-20 20:01 53.07636 8.73408 1266 ft 133 kts 143°
2026-04-20 20:01 53.06856 8.74236 974 ft 130 kts 131°
2026-04-20 20:01 53.06243 8.75236 644 ft 121 kts 126°
2026-04-20 20:02 53.05721 8.76248 577 ft 104 kts 120°
2026-04-20 20:02 53.05341 8.77108 441 ft 81 kts 115°
2026-04-20 20:02 53.05061 8.77802 291 ft 66 kts 112°
2026-04-20 20:02 53.04981 8.78055 232 ft 61 kts 102°
2026-04-20 20:03 53.04911 8.78637 72 ft 32 kts 84°
2026-04-20 20:03 53.04936 8.78783 51 ft 10 kts 64°
2026-04-20 20:03 53.04969 8.78862 36 ft 6 kts 188°
2026-04-20 20:03 53.04961 8.78859 23 ft 0 kts 231°